Hourly Data Report for May 12, 2017

ATIKOKAN (AUT)
ONTARIO

48°45'40.000" N
91°37'41.000" W
389.30 m
6020LPQ
71747
WCH

Download Data

Hourly Data (May 2017)
Hourly Data Report for May 12, 2017
TIME
LST
Temp Definition
°C
Dew Point Definition
°C
Rel Hum Definition
%
Precip. Amount Definition
mm

Wind Dir Definition
10's deg

Wind Spd Definition
km/h
Visibility Definition
km
Stn Press Definition
kPa
Hmdx Definition


Wind Chill Definition


Weather Definition


00:00 1.1 0.1 93 0.0   0   97.14     LegendNANA
01:00 0.4 -0.3 95 0.0 7 2   97.14     LegendNANA
02:00 -0.6 -1.3 95 0.0   0   97.13     LegendNANA
03:00 -1.1 -1.8 95 0.0   0   97.10     LegendNANA
04:00 -1.3 -1.8 97 0.0 7 2   97.12   -2 LegendNANA
05:00 -1.5 -1.9 97 0.0   0   97.14     LegendNANA
06:00 1.6 -0.2 88 0.0 0 1   97.16     LegendNANA
07:00 5.7 1.2 72 0.0 0 1   97.15     LegendNANA
08:00 9.3 1.0 56 0.0 30 2   97.10     LegendNANA
09:00 10.2 0.2 50 0.0 29 7   97.06     LegendNANA
10:00 12.2 0.5 44 0.0 29 9   96.99     LegendNANA
11:00 12.8 -0.6 40 0.0 29 7   96.94     LegendNANA
12:00 13.5 -1.0 37 0.0 31 11   96.88     LegendNANA
13:00 15.1 -0.3 35 0.0 31 11   96.81     LegendNANA
14:00 15.7 -0.9 32 0.0 33 13   96.77     LegendNANA
15:00 16.0 -1.7 30 0.0 28 10   96.73     LegendNANA
16:00 15.5 -2.4 29 0.0 36 12   96.71     LegendNANA
17:00 15.8 -2.0 29 0.0 35 8   96.69     LegendNANA
18:00 15.1 -2.1 31 0.0 34 10   96.68     LegendNANA
19:00 13.6 -2.4 33 0.0 35 7   96.70     LegendNANA
20:00 10.8 -1.2 43 0.0 2 7   96.71     LegendNANA
21:00 9.2 -0.4 51 0.0 3 6   96.76     LegendNANA
22:00 6.9 0.1 62 0.0 5 5   96.77     LegendNANA
23:00 4.9 -0.1 70 0.0 3 3   96.79     LegendNANA

Notes on Data Quality.

Legend

  • E = Estimated
  • M = Missing
  • NA = Not Available*
  • [empty] = Indicates an unobserved value
Date modified: